INSAT-3DS

Last updated on Sat Aug 15 2026 00:02:41 GMT+0000 (Coordinated Universal Time)

1 58990U 24033A 26226.60253208 -.00000171 00000+0 00000+0 0 9995 2 58990 0.1091 264.3351 0001119 261.8004 95.8576 1.00273361 47656
UTC large
Height (km)
Speed (km/s)
/
Latitude / Longitude
Inclination (degrees)
Orbital Period (minutes)
Azimuth
Elevation
Range (km)
Doppler Factor

Next 0 passes for location: London (51.5072 / 0.1276)

No passes found over London.
INSAT-3DS